Location: Joplin
(37.0842°N, 94.5131°W)
Time: 03:10:31
(UTC-06:00)

ISS - Pass Details

Date: 28 January 2019
Orbit: 403 x 411 km, 51.6° (Epoch: 16 February)

Event Time Altitude Azimuth Distance (km) Brightness Sun altitude
Rises 18:15:25 0° 281° (WNW) 2,327 1.3 -7.8°
Reaches altitude 10° 18:18:34 10° 315° (NW) 1,471 -0.6 -8.4°
Maximum altitude 18:19:56 12° 339° (NNW) 1,354 -1.1 -8.6°
Drops below altitude 10° 18:21:22 10° 5° (N) 1,482 -1.2 -8.9°
Enters shadow 18:23:07 - 27° (NNE) 1,902 -0.8 -9.2°
